Weather History for Colima, Mexico

Change the Weather History Date:

Thursday, November 8, 2012

  Actual Average Record
Temperature  
Mean Temperature 81 °F -  
Max Temperature 95 °F 83 °F 95 °F (2012)
Min Temperature 67 °F 66 °F 59 °F (2010)
Cooling Degree Days 16    
Growing Degree Days 31 (Base 50)    
Moisture  
Dew Point 64 °F    
Average Humidity 61    
Maximum Humidity 83    
Minimum Humidity 27    
Precipitation  
Precipitation 0.00 in - - ()
Sea Level Pressure  
Sea Level Pressure 30.00 in    
Wind  
Wind Speed 8 mph ()    
Max Wind Speed 17 mph    
Max Gust Speed -    
Visibility 6.9 miles    
Events      
Averages and records for this station are not official NWS values.
T = Trace of Precipitation, MM = Missing Value Source: Averaged Metar Reports

Daily Weather History Graph

Daily Weather History Graph

Search for Another Location

Airport:

Trip Planner

Search our weather history database for the weather conditions in past years. The results will help you decide how hot, cold, wet, or windy it might be!

Date:

Astronomy

Nov. 08, 2012 Rise Set
Actual Time 6:58 AM CST 6:17 PM CST
Civil Twilight 6:35 AM CST 6:40 PM CST
Nautical Twilight 6:09 AM CST 7:06 PM CST
Astronomical Twilight 5:43 AM CST 7:32 PM CST
Moon 1:42 AM CST (11/8) 2:18 PM CST (11/8)
Length of Visible Light 12h 04m
Length of Day
11h 18m
Waning Crescent, 32% of the Moon is Illuminated
Nov 8
Waning Crescent
Nov 13
New
Nov 20
First Quarter
Nov 28
Full
Dec 6
Last Quarter

Hourly Weather History & Observations

Time (CST) Temp. Heat Index Dew Point Humidity Pressure Visibility Wind Dir Wind Speed Gust Speed Precip Events Conditions
6:00 AM 69.8 °F - 62.6 °F 78% 30.03 in 8.0 mi NNE 17.3 mph - N/A   Scattered Clouds
6:40 AM 69.8 °F - 62.6 °F 78% 30.03 in 8.0 mi NNE 17.3 mph - N/A   Scattered Clouds
7:58 AM 71.6 °F - 62.6 °F 73% 30.04 in 8.0 mi NNE 11.5 mph - N/A   Scattered Clouds
8:46 AM 73 °F - 59 °F 51% 30.02 in 5 mi NE 2.2 mph - -   Haze
8:56 AM 75.2 °F - 62.6 °F 65% 30.08 in 8.0 mi Calm Calm - N/A   Clear
9:46 AM 75.2 °F - 60.8 °F 61% 30.07 in 8.0 mi NNE 11.5 mph - N/A   Clear
10:56 AM 82.4 °F 83.4 °F 62.6 °F 51% 30.07 in 8.0 mi Calm Calm - N/A   Scattered Clouds
11:40 AM 84.2 °F 85.0 °F 62.6 °F 48% 30.04 in 8.0 mi ENE 11.5 mph - N/A   Scattered Clouds
11:49 AM 89 °F - 60 °F 27% 29.97 in 6 mi NW 4.5 mph - -   Haze
12:40 PM 86.0 °F 87.3 °F 64.4 °F 48% 30.01 in 8.0 mi NNE 9.2 mph - N/A   Scattered Clouds
1:40 PM 86.0 °F 86.6 °F 62.6 °F 45% 29.98 in 8.0 mi NNE 11.5 mph - N/A   Scattered Clouds
2:40 PM 86.0 °F 85.4 °F 59.0 °F 40% 29.96 in 8.0 mi SW 9.2 mph - N/A   Scattered Clouds
2:50 PM 91 °F - 66 °F 34% 29.85 in 6 mi SW 2.2 mph - -   Haze
3:49 PM 84.2 °F 85.6 °F 64.4 °F 51% 29.95 in 8.0 mi SW 11.5 mph - N/A   Scattered Clouds
4:43 PM 80.6 °F 82.7 °F 66.2 °F 61% 29.95 in 6.0 mi WSW 11.5 mph - N/A   Scattered Clouds
5:47 PM 77.0 °F - 69.8 °F 78% 29.97 in 6.0 mi WSW 8.1 mph - N/A   Mostly Cloudy
5:48 PM 83 °F - 71 °F 59% 29.86 in 6 mi SE 4.5 mph - -   Haze
6:41 PM 75.2 °F - 69.8 °F 83% 30.00 in 5.0 mi West 9.2 mph - N/A   Mostly Cloudy
7:45 PM 73.4 °F - 66.2 °F 78% 30.03 in 6.0 mi West 6.9 mph - N/A   Scattered Clouds
8:41 PM 73.4 °F - 66.2 °F 78% 30.05 in 6.0 mi West 6.9 mph - N/A   Scattered Clouds
8:46 PM 77 °F - 69 °F 69% 29.94 in 5 mi NE 2.2 mph - -   Haze
9:40 PM 71.6 °F - 66.2 °F 83% 30.06 in 8.0 mi Calm Calm - N/A   Scattered Clouds
11:46 PM 73 °F - 67 °F 75% 29.95 in 5 mi East 2.2 mph - -   Haze